Overview Statistics Trail Chart Weather Telemetry Raw packets
 

This is the latest recevied weather packets stored in our database for station/object YD2CLX-11. If no packets are shown the sender has not sent any weather packets the latest 10 day(s).

<< 28 29 30 31 32 33 34 >>
Time Temp. Humidity Pressure Rain* Wind** Luminosity Snow
1788169919 31.67° C 58% 998 hPa - - - -
1788169317 32.22° C 57% 997.8 hPa - - - -
1788168716 32.22° C 56% 997.7 hPa - - - -
1788168114 33.33° C 54% 997.4 hPa - - - -
1788167514 33.33° C 52% 997.3 hPa - - - -
1788166912 33.89° C 50% 997.3 hPa - - - -
1788166311 34.44° C 48% 997.1 hPa - - - -
1788165710 34.44° C 48% 997 hPa - - - -
1788165109 35.56° C 46% 996.9 hPa - - - -
1788164508 35.56° C 45% 996.9 hPa - - - -
1788163905 36.11° C 44% 996.8 hPa - - - -
1788163304 35.56° C 45% 996.8 hPa - - - -
1788162703 36.67° C 43% 996.7 hPa - - - -
1788162102 36.67° C 43% 996.8 hPa - - - -
1788161500 37.22° C 41% 996.9 hPa - - - -
1788160899 37.78° C 41% 996.9 hPa - - - -
1788160297 37.22° C 41% 996.9 hPa - - - -
1788159696 37.78° C 41% 997 hPa - - - -
1788159094 37.78° C 41% 997.1 hPa - - - -
1788158493 37.22° C 42% 997.1 hPa - - - -
1788157892 37.78° C 40% 997.2 hPa - - - -
1788157291 37.22° C 41% 997.3 hPa - - - -
1788156690 37.22° C 41% 997.6 hPa - - - -
1788156089 37.78° C 40% 997.7 hPa - - - -
1788155489 37.78° C 40% 997.7 hPa - - - -

* Rain since midnight (hover to see other rain measurements)
** Current wind speed in m/s (hover to see current wind gust speed)